Regional Weather Roundup
Issued by NWS

Current Version | Previous Version | Text Only | Print | Product List | Glossary On
Versions: 1 2 3 4 5 6 7 8 9 10 11 12 13 14 15 16 17 18 19 20 21 22 23 24 25 26 27 28 29 30 31 32 33 34 35 36 37 38 39 40 41 42 43 44 45 46 47 48 49 50
000
ASUS44 KLIX 300012
RWRLA
LOUISIANA WEATHER ROUNDUP
NATIONAL WEATHER SERVICE NEW ORLEANS LA
700 PM CDT WED JUL 29 2015

NOTE: "FAIR" INDICATES FEW OR NO CLOUDS BELOW 12,000 FEET WITH NO
      SIGNIFICANT WEATHER AND/OR OBSTRUCTIONS TO VISIBILITY.
      SKY/WX - SKY CONDITION AND SIGNIFICANT WEATHER.
      TMP - AIR TEMPERATURE.    DP   - DEWPOINT TEMPERATURE.
      RH  - RELATIVE HUMIDITY.  PRES - PRESSURE.
      HX  - HEAT INDEX.         WCI  - WIND CHILL INDEX.

*  THESE STATIONS ARE NOT NWS OR FAA STATIONS AND ARE NOT UNDER
   NWS QUALITY CONTROL.

LAZ040-048-061>063-065-066-069-300100-
SOUTHEAST LOUISIANA

CITY           SKY/WX    TMP DP  RH WIND       PRES   REMARKS
N.O. AUDUBON     N/A     82  76  81 MISG        N/A
6HR MIN TEMP:  82; 6HR MAX TEMP: 101; 6HR PCP:  0.10;

N.O. INTL ARPT CLOUDY    87  70  56 NE28G40   30.00R THUNDER
6HR MIN TEMP:  87; 6HR MAX TEMP:  99;

N.O. LAKEFRONT HVY RAIN  76  75  97 NE43G60   30.04R VSB 1/4
6HR MIN TEMP:  78; 6HR MAX TEMP:  95; 6HR PCP:  0.53;

N.O. DOWNTOWN* MOCLDY    81  75  83 E6G21     30.00R
6HR MIN TEMP:  79; 6HR MAX TEMP: 100; 6HR PCP:  0.23;

RESERVE*       FAIR      89  73  60 W5        29.98R HX  97
6HR MIN TEMP:  89; 6HR MAX TEMP: 101;

SLIDELL        TSTM      75  73  93 SW13      29.98F
6HR MIN TEMP:  74; 6HR MAX TEMP:  99; 6HR PCP:  1.20;

BATON ROUGE    CLOUDY    88  73  61 CALM      29.98R HX  95
6HR MIN TEMP:  87; 6HR MAX TEMP:  99;

BOOTHVILLE     MOCLDY    89  76  65 S8        29.98R HX 100
6HR MIN TEMP:  89; 6HR MAX TEMP:  95;

BELLE CHASSE   TSTM      77  72  84 NW10G18   29.98R
6HR MIN TEMP:  77; 6HR MAX TEMP:  96; 6HR PCP:  0.04;

BOGALUSA*      TSTM      78  72  80 S7        29.98F
6HR MIN TEMP:  76; 6HR MAX TEMP:  99; 6HR PCP:  0.73;

GALLIANO*      NOT AVBL
NEW ROADS*     MOCLDY   N/A N/A N/A NE3       29.98R
GONZALES*      FAIR      83  74  74 CALM      29.98R
6HR MIN TEMP:  82; 6HR MAX TEMP:  98;

HAMMOND*       PTSUNNY   91  73  55 NW5       29.99R HX 100
HOUMA*         MOSUNNY   86  75  70 SW6       29.98R HX  95
PORT FOURCHON* NOT AVBL

$$

LAZ041-044-053-054-300100-
SOUTHWEST LOUISIANA

CITY           SKY/WX    TMP DP  RH WIND       PRES   REMARKS
LAKE CHARLES   MOSUNNY   93  76  57 SW7       29.96S HX 105
6HR MIN TEMP:  93; 6HR MAX TEMP:  99;

LAFAYETTE      PTSUNNY   94  75  54 NE3       29.97R HX 105
6HR MIN TEMP:  94; 6HR MAX TEMP:  98;

PATTERSON      CLOUDY    81  72  74 N14G29    30.03R THUNDER
6HR MIN TEMP:  81; 6HR MAX TEMP:  95;

SALT POINT       N/A     88  79  74 VRB7      29.96S HX 103
6HR MIN TEMP:  86; 6HR MAX TEMP:  95;

NEW IBERIA     PTSUNNY   92  75  57 SW8       29.97R HX 103
6HR MIN TEMP:  92; 6HR MAX TEMP:  99;

CHENAULT AIRPK SUNNY     95  72  46 CALM      29.97S HX 103

$$

LAZ027-028-300100-
CENTRAL LOUISIANA

CITY           SKY/WX    TMP DP  RH WIND       PRES   REMARKS
FORT POLK      SUNNY     95  70  44 SW6       29.96S HX 100
6HR MIN TEMP:  94; 6HR MAX TEMP:  98;

ALEXANDRIA INT   N/A    N/A N/A N/A MISG      29.95S
ALEXANDRIA     MOSUNNY   90  77  65 CALM      29.97R HX 103
6HR MIN TEMP:  90; 6HR MAX TEMP: 102; 6HR PCP: TRACE;


$$

LAZ001-002-300100-
NORTHWEST LOUISIANA

CITY           SKY/WX    TMP DP  RH WIND       PRES   REMARKS
SHREVEPORT     MOSUNNY   99  66  33 N6        29.97R HX 103
6HR MIN TEMP:  97; 6HR MAX TEMP: 101;

BARKSDALE AFB  SUNNY     98  66  35 NE5       29.97R HX 101
6HR MIN TEMP:  97; 6HR MAX TEMP: 101;

DTN SHREVEPORT SUNNY     98  65  33 N3        29.97R HX 101
6HR MIN TEMP:  94; 6HR MAX TEMP: 100;


$$

LAZ014-016-300100-
NORTHEAST LOUISIANA

CITY           SKY/WX    TMP DP  RH WIND       PRES   REMARKS
MONROE         SUNNY     98  72  42 N5        29.97R HX 107
6HR MIN TEMP:  97; 6HR MAX TEMP: 101;

TALLULAH       SUNNY     93  74  53 N5        29.96S HX 103
6HR MIN TEMP:  93; 6HR MAX TEMP:  99;


$$




USA.gov is the U.S. government's official web portal to all federal, state and local government web resources and services.